AB8YS Weather Reports


Display with metric or nautical units.
time (UTC)temp
F
wind
direction
speed
MPH
gust
MPH
rain 1hr
in
rain 24hr
in
rain mn
in
humidity
%
barometer
mb
20260901104546 73 282 0.0 0.0 0.00 0.00 0.00 93 1016.4
20260901103045 73 281 0.0 0.0 0.00 0.00 0.00 94 1016.3
20260901101546 72 282 0.0 0.0 0.00 0.00 0.00 96 1016.3
20260901100047 72 282 0.0 0.0 0.00 0.00 0.00 96 1016.1
20260901094543 72 281 0.0 0.0 0.00 0.00 0.00 96 1016.0
20260901093041 72 281 0.0 0.0 0.00 0.00 0.00 95 1016.0
20260901091548 72 281 0.0 0.0 0.00 0.00 0.00 95 1016.0
20260901090039 72 281 0.0 0.0 0.00 0.00 0.00 95 1015.8
20260901084538 72 281 0.0 0.0 0.00 0.00 0.00 95 1015.8
20260901083038 72 281 0.0 0.0 0.00 0.00 0.00 95 1015.7
20260901081540 73 281 0.0 0.0 0.00 0.00 0.00 94 1015.6
20260901080035 73 281 0.0 0.0 0.00 0.00 0.00 94 1015.6
20260901074533 73 281 0.0 0.0 0.00 0.00 0.00 93 1015.6
20260901073033 74 281 0.0 0.0 0.00 0.00 0.00 92 1015.7
20260901071530 74 281 0.0 0.0 0.00 0.00 0.00 91 1015.6
20260901070035 75 281 0.0 0.0 0.00 0.00 0.00 90 1015.6
20260901064530 75 281 0.0 0.0 0.00 0.00 0.00 89 1015.7
20260901063037 76 281 0.0 0.0 0.00 0.00 0.00 88 1015.6
20260901061627 76 282 0.0 0.0 0.00 0.00 0.00 88 1015.5
20260901060026 77 282 0.0 1.0 0.00 0.00 0.00 87 1015.3
20260901054533 76 231 0.0 1.0 0.00 0.00 0.00 88 1015.1
20260901053024 76 233 0.0 0.0 0.00 0.00 0.00 88 1015.5
20260901051523 76 233 0.0 0.0 0.00 0.00 0.00 87 1015.6
20260901050022 76 233 0.0 1.0 0.00 0.00 0.00 87 1015.5
20260901044522 76 229 0.0 1.0 0.00 0.00 0.00 87 1015.4
20260901043021 76 252 0.0 0.0 0.00 0.00 0.00 89 1015.5
20260901041515 75 278 0.0 1.0 0.00 0.00 0.00 91 1015.7
20260901040012 74 279 0.0 0.0 0.00 0.00 0.00 91 1016.0
20260901034519 74 279 0.0 0.0 0.00 0.00 0.00 91 1016.1
20260901033014 75 279 0.0 0.0 0.00 0.00 0.00 91 1016.3
20260901031521 75 279 0.0 0.0 0.00 0.00 0.00 90 1016.4
20260901030008 75 279 0.0 0.0 0.00 0.00 0.00 90 1016.4
20260901024508 76 279 0.0 0.0 0.00 0.00 0.00 90 1016.4
20260901023011 76 279 0.0 0.0 0.00 0.00 0.00 90 1016.4
20260901021507 76 279 0.0 0.0 0.00 0.00 0.00 89 1016.5
20260901020006 77 279 0.0 0.0 0.00 0.00 0.00 88 1016.5
20260901014506 77 279 0.0 0.0 0.00 0.00 0.00 88 1016.5
20260901013016 78 279 0.0 0.0 0.00 0.00 0.00 86 1016.5
20260901011605 78 279 0.0 0.0 0.00 0.00 0.00 85 1016.3
20260901010005 79 279 0.0 0.0 0.00 0.00 0.00 82 1016.1
20260901004504 80 279 0.0 0.0 0.00 0.00 0.00 80 1016.0
20260901003004 80 279 0.0 0.0 0.00 0.00 0.00 80 1016.0
20260901001503 81 279 0.0 0.0 0.00 0.00 0.00 78 1015.8
20260901000002 82 279 0.0 0.0 0.00 0.00 0.00 75 1015.6
20260831234504 83 279 0.0 0.0 0.00 0.00 0.00 75 1015.6
20260831233002 84 279 0.0 0.0 0.00 0.00 0.00 73 1015.5
20260831231501 84 279 0.0 0.0 0.00 0.00 0.00 70 1015.2
20260831230002 85 279 0.0 0.0 0.00 0.00 0.00 67 1015.1
20260831224600 86 279 0.0 0.0 0.00 0.00 0.00 66 1015.1
20260831223103 87 273 0.0 1.0 0.00 0.00 0.00 63 1014.9
20260831221627 87 273 0.0 1.0 0.00 0.00 0.00 60 1015.0
20260831220058 88 261 0.0 4.0 0.00 0.00 0.00 58 1014.7
20260831214556 88 262 0.0 2.0 0.00 0.00 0.00 57 1015.0
20260831213054 88 275 0.0 3.0 0.00 0.00 0.00 57 1015.4
20260831211553 89 274 0.0 1.0 0.00 0.00 0.00 54 1015.5
20260831210051 88 268 0.0 1.0 0.00 0.00 0.00 59 1015.7
20260831204549 88 270 0.0 1.0 0.00 0.00 0.00 60 1016.0
20260831203105 88 270 0.0 1.0 0.00 0.00 0.00 56 1016.2
20260831201555 89 275 0.0 1.0 0.00 0.00 0.00 58 1016.5
20260831200129 90 302 0.0 1.0 0.00 0.00 0.00 59 1016.8
20260831194546 90 300 0.0 1.0 0.00 0.00 0.00 59 1017.0
20260831193043 90 265 0.0 1.0 0.00 0.00 0.00 57 1017.2
20260831191544 89 268 0.0 1.0 0.00 0.00 0.00 62 1017.3
20260831190042 89 264 0.0 1.0 0.00 0.00 0.00 62 1017.2
20260831184538 88 264 0.0 1.0 0.00 0.00 0.00 66 1017.4
20260831183034 87 257 0.0 0.0 0.00 0.00 0.00 70 1017.5
20260831181537 87 282 0.0 1.0 0.00 0.00 0.00 69 1017.7
20260831180032 87 282 0.0 1.0 0.00 0.00 0.00 70 1017.8
20260831174536 87 266 0.0 1.0 0.00 0.00 0.00 68 1017.8
20260831173032 87 275 0.0 1.0 0.00 0.00 0.00 70 1017.9
20260831171528 86 274 0.0 2.0 0.00 0.00 0.00 72 1018.0
20260831170036 86 264 0.0 1.0 0.00 0.00 0.00 71 1018.2
20260831164526 86 275 0.0 1.0 0.00 0.00 0.00 72 1018.3
20260831163024 85 262 0.0 2.0 0.00 0.00 0.00 73 1018.4
20260831161521 85 264 0.0 1.0 0.00 0.00 0.00 72 1018.5
20260831160019 84 284 0.0 0.0 0.00 0.00 0.00 75 1018.5
20260831154517 83 255 0.0 1.0 0.00 0.00 0.00 74 1018.4
20260831153014 82 254 0.0 0.0 0.00 0.00 0.00 76 1018.3
20260831151512 82 254 0.0 1.0 0.00 0.00 0.00 74 1018.2
20260831150011 82 254 0.0 0.0 0.00 0.00 0.00 76 1018.2
20260831144509 81 250 0.0 1.0 0.00 0.00 0.00 76 1018.0
20260831143007 81 254 0.0 0.0 0.00 0.00 0.00 78 1017.9
20260831141505 80 255 0.0 0.0 0.00 0.00 0.00 79 1017.8
20260831140100 79 255 0.0 0.0 0.00 0.00 0.00 78 1017.8
20260831134600 79 242 0.0 0.0 0.00 0.00 0.00 79 1017.8
20260831133058 79 242 0.0 0.0 0.00 0.00 0.00 81 1017.9
20260831131559 78 241 0.0 1.0 0.00 0.00 0.00 83 1018.0
20260831130052 76 241 0.0 0.0 0.00 0.00 0.00 85 1017.9
20260831124547 74 241 0.0 0.0 0.00 0.00 0.00 87 1017.8
20260831123042 73 241 0.0 0.0 0.00 0.00 0.00 90 1017.7
20260831121538 72 241 0.0 0.0 0.00 0.00 0.00 91 1017.7
20260831120035 71 241 0.0 0.0 0.00 0.00 0.00 91 1017.5
20260831114535 71 241 0.0 0.0 0.00 0.00 0.00 92 1017.5
20260831113040 71 241 0.0 0.0 0.00 0.00 0.00 92 1017.4
20260831111534 71 241 0.0 0.0 0.00 0.00 0.00 92 1017.3
20260831110034 71 241 0.0 0.0 0.00 0.00 0.00 92 1017.2